period_start,C,m1,H,J0,J1,J2,J3,J4,J5,JA,JB,JC,JD,JJ,JK,JN,#
2018-04-07 00:02:18,0.13,3.36,0.00,27.80,30.26,33.05,13.78,48.13,1026.88,2012.00,2316.14,2251.68,2593.80,600.08,592.45,19.20,0000 0000 0000 0000 000000
2018-04-07 00:07:20,0.13,3.37,0.00,27.84,30.28,33.09,13.78,48.11,1026.88,2012.00,2314.31,2250.45,2592.43,600.16,592.53,19.25,0000 0000 0000 0000 000000
2018-04-07 00:12:21,0.12,3.38,0.00,27.87,30.31,33.09,13.79,48.18,1026.90,2012.00,2312.45,2249.19,2590.96,600.18,592.50,19.30,0000 0000 0000 0000 000000
2018-04-07 00:17:22,0.13,3.38,0.00,27.91,30.32,33.12,13.76,48.19,1026.92,2012.00,2310.78,2248.04,2589.62,599.87,592.13,19.35,0000 0000 0000 0000 000000
2018-04-07 00:22:23,0.12,3.39,0.00,27.96,30.35,33.14,13.78,48.17,1026.93,2012.00,2309.23,2246.82,2588.29,599.94,592.18,19.40,0000 0000 0000 0000 000000
2018-04-07 00:27:24,0.12,3.39,0.00,28.01,30.37,33.15,13.78,48.09,1026.89,2011.99,2307.67,2245.72,2586.93,599.93,591.88,19.45,0000 0000 0000 0000 000000
2018-04-07 00:32:25,0.12,3.40,0.00,28.05,30.40,33.20,13.81,48.16,1026.88,2011.99,2306.13,2244.57,2585.59,600.05,592.01,19.50,0000 0000 0000 0000 000000
2018-04-07 00:37:26,0.12,3.41,0.00,28.09,30.42,33.22,13.78,48.06,1026.88,2011.97,2304.39,2243.41,2584.19,600.33,592.20,19.55,0000 0000 0000 0000 000000
2018-04-07 00:42:27,0.11,3.41,0.00,28.16,30.45,33.25,13.79,48.18,1026.90,2011.86,2302.72,2242.15,2582.74,599.76,591.56,19.60,0000 0000 0000 0000 000000
2018-04-07 00:47:29,0.08,3.42,0.00,28.20,30.48,33.26,13.78,48.14,1026.95,2011.65,2301.16,2240.95,2581.43,599.82,591.77,19.65,0000 0000 0000 0000 000000
2018-04-07 00:52:30,0.09,3.42,0.00,28.25,30.51,33.31,13.74,48.00,1026.94,2011.33,2299.63,2239.81,2580.11,599.97,591.60,19.70,0000 0000 0000 0000 000000
2018-04-07 00:57:31,0.10,3.43,0.00,28.32,30.54,33.32,13.66,47.97,1026.91,2011.05,2298.00,2238.77,2578.68,599.73,591.16,19.75,0000 0000 0000 0000 000000
2018-04-07 01:02:32,0.12,3.43,0.00,28.36,30.58,33.35,13.79,48.12,1026.93,2011.01,2296.43,2237.60,2577.32,600.01,591.33,19.80,0000 0000 0000 0000 000000
2018-04-07 01:07:34,0.13,3.44,0.00,28.40,30.61,33.40,13.70,48.11,1026.95,2011.00,2294.74,2236.44,2575.87,600.04,591.45,19.85,0000 0000 0000 0000 000000
2018-04-07 01:12:35,0.11,3.45,0.00,28.46,30.65,33.42,13.79,48.21,1026.93,2011.00,2293.17,2235.23,2574.52,599.94,591.13,19.90,0000 0000 0000 0000 000000
2018-04-07 01:17:36,0.13,3.45,0.00,28.54,30.69,33.45,13.73,48.16,1027.08,2010.97,2291.54,2233.95,2573.02,599.81,590.93,19.95,0000 0000 0000 0000 000000
2018-04-07 01:22:37,0.08,3.46,0.00,28.60,30.73,33.48,13.64,48.08,1027.30,2010.78,2290.20,2232.85,2571.71,599.69,590.86,20.00,0000 0000 0000 0000 000000
2018-04-07 01:27:39,0.06,3.46,0.00,28.67,30.77,33.53,13.73,47.99,1027.35,2010.15,2288.68,2231.69,2570.31,600.38,591.46,20.05,0000 0000 0000 0000 000000
2018-04-07 01:32:40,0.13,3.47,0.00,28.72,30.81,33.57,13.67,48.02,1027.36,2010.01,2286.93,2230.45,2568.81,599.67,590.58,20.10,0000 0000 0000 0000 000000
2018-04-07 01:37:41,0.12,3.47,0.00,28.79,30.85,33.60,13.74,48.08,1027.35,2010.00,2285.26,2229.23,2567.46,599.91,590.71,20.15,0000 0000 0000 0000 000000
2018-04-07 01:42:42,0.13,3.48,0.00,28.86,30.89,33.65,13.71,48.09,1027.36,2009.98,2283.60,2227.92,2565.96,600.08,590.81,20.20,0000 0000 0000 0000 000000
2018-04-07 01:47:43,0.12,3.49,0.00,28.91,30.93,33.69,13.71,48.14,1027.36,2009.86,2281.93,2226.69,2564.54,599.86,590.37,20.25,0000 0000 0000 0000 000000
2018-04-07 01:52:44,0.06,3.49,0.00,28.98,30.98,33.71,13.66,47.99,1027.36,2009.39,2280.33,2225.53,2563.15,599.82,590.36,20.30,0000 0000 0000 0000 000000
2018-04-07 01:57:46,0.10,3.50,0.00,29.04,31.03,33.77,13.79,47.98,1027.36,2009.04,2278.72,2224.32,2561.69,600.09,590.35,20.35,0000 0000 0000 0000 000000
2018-04-07 02:02:47,0.11,3.50,0.00,29.10,31.07,33.81,13.70,48.02,1027.36,2009.00,2277.23,2223.17,2560.37,599.66,589.92,20.40,0000 0000 0000 0000 000000
2018-04-07 02:07:48,0.13,3.51,0.00,29.17,31.12,33.88,13.71,48.05,1027.36,2008.98,2275.61,2221.84,2558.98,599.94,589.98,20.45,0000 0000 0000 0000 000000
2018-04-07 02:12:50,0.13,3.51,0.00,29.24,31.17,33.91,13.75,48.00,1027.37,2008.92,2273.89,2220.63,2557.69,600.29,590.20,20.50,0000 0000 0000 0000 000000
2018-04-07 02:17:51,0.05,3.52,0.00,29.31,31.23,33.95,13.77,47.95,1027.37,2008.32,2272.24,2219.38,2556.21,600.67,590.43,20.55,0000 0000 0000 0000 000000
2018-04-07 02:22:52,0.12,3.52,0.00,29.38,31.28,34.01,13.74,47.92,1027.37,2008.01,2270.62,2218.11,2554.73,600.07,589.74,20.60,0000 0000 0000 0000 000000
2018-04-07 02:27:53,0.13,3.53,0.00,29.46,31.33,34.05,13.75,48.02,1027.38,2008.00,2268.97,2216.84,2553.26,600.29,589.87,20.65,0000 0000 0000 0000 000000
2018-04-07 02:32:55,0.14,3.54,0.00,29.53,31.38,34.13,13.79,47.99,1027.38,2007.97,2267.30,2215.60,2551.80,600.46,589.85,20.70,0000 0000 0000 0000 000000
2018-04-07 02:37:56,0.07,3.54,0.00,29.61,31.44,34.17,13.66,47.99,1027.40,2007.57,2265.51,2214.26,2550.26,600.33,589.51,20.75,0000 0000 0000 0000 000000
2018-04-07 02:42:57,0.11,3.55,0.00,29.67,31.49,34.23,13.70,48.04,1027.43,2007.08,2263.74,2212.89,2548.66,600.17,589.20,20.80,0000 0000 0000 0000 000000
2018-04-07 02:47:58,0.14,3.55,0.00,29.74,31.55,34.30,13.71,48.07,1027.39,2007.00,2261.91,2211.57,2547.08,600.13,589.01,20.85,0000 0000 0000 0000 000000
2018-04-07 02:52:59,0.18,3.56,0.00,29.81,31.60,34.35,13.72,47.92,1027.39,2006.96,2259.62,2209.89,2545.14,600.24,589.12,20.90,0000 0000 0000 0000 000000
2018-04-07 02:58:01,0.10,3.57,0.00,29.87,31.66,34.41,13.69,48.05,1027.38,2006.52,2257.28,2208.23,2543.17,599.99,588.68,20.95,0000 0000 0000 0000 000000
2018-04-07 03:03:02,0.15,3.58,0.00,29.93,31.72,34.46,13.65,47.96,1027.38,2006.02,2255.17,2206.58,2541.19,600.20,588.81,21.00,0000 0000 0000 0000 000000
2018-04-07 03:08:04,0.18,3.59,0.00,30.02,31.77,34.53,13.69,47.83,1027.39,2006.00,2252.91,2204.92,2539.20,600.18,588.66,21.05,0000 0000 0000 0000 000000
2018-04-07 03:13:05,0.16,3.59,0.00,30.10,31.83,34.58,13.70,47.87,1027.38,2005.96,2250.77,2203.35,2537.38,600.14,588.39,21.10,0000 0000 0000 0000 000000
2018-04-07 03:18:06,0.10,3.60,0.00,30.17,31.89,34.62,13.63,47.80,1027.46,2005.52,2248.67,2201.78,2535.57,599.72,587.91,21.15,0000 0000 0000 0000 000000
2018-04-07 03:23:07,0.13,3.61,0.00,30.24,31.95,34.69,13.67,47.80,1027.45,2005.04,2246.62,2200.30,2533.80,599.50,587.49,21.20,0000 0000 0000 0000 000000
2018-04-07 03:28:09,0.17,3.61,0.00,30.32,32.00,34.76,13.70,47.83,1027.48,2004.99,2244.64,2198.75,2531.97,600.28,588.09,21.25,0000 0000 0000 0000 000000
2018-04-07 03:33:10,0.14,3.62,0.00,30.40,32.07,34.83,13.63,47.77,1027.48,2004.94,2242.67,2197.37,2530.34,599.89,587.62,21.30,0000 0000 0000 0000 000000
2018-04-07 03:38:11,0.08,3.63,0.00,30.47,32.12,34.88,13.64,47.89,1027.61,2004.38,2240.81,2195.86,2528.64,599.53,587.22,21.35,0000 0000 0000 0000 000000
2018-04-07 03:43:13,0.14,3.63,0.00,30.53,32.19,34.94,13.63,47.75,1027.65,2004.01,2238.89,2194.38,2526.87,600.06,587.59,21.40,0000 0000 0000 0000 000000
2018-04-07 03:48:14,0.16,3.64,0.00,30.61,32.25,35.00,13.62,47.66,1027.61,2003.99,2237.11,2192.93,2525.14,600.19,587.50,21.45,0000 0000 0000 0000 000000
2018-04-07 03:53:16,0.09,3.65,0.00,30.67,32.32,35.06,13.68,47.69,1027.68,2003.66,2235.24,2191.50,2523.47,600.46,587.77,21.50,0000 0000 0000 0000 000000
2018-04-07 03:58:17,0.13,3.65,0.00,30.72,32.38,35.14,13.60,47.77,1027.73,2003.09,2233.15,2189.96,2521.61,599.62,586.85,21.55,0000 0000 0000 0000 000000
2018-04-07 04:03:18,0.15,3.66,0.00,30.81,32.44,35.19,13.62,47.85,1027.81,2003.00,2231.22,2188.49,2519.86,600.08,587.21,21.60,0000 0000 0000 0000 000000
2018-04-07 04:08:20,0.12,3.67,0.00,30.85,32.51,35.26,13.73,47.75,1027.85,2002.91,2229.44,2187.03,2518.26,600.64,587.68,21.65,0000 0000 0000 0000 000000
2018-04-07 04:13:21,0.08,3.67,0.00,30.92,32.58,35.32,13.62,47.86,1027.84,2002.28,2227.63,2185.64,2516.63,599.84,586.76,21.70,0000 0000 0000 0000 000000
2018-04-07 04:18:22,0.14,3.68,0.00,30.97,32.64,35.37,13.68,47.78,1027.84,2002.01,2225.71,2184.19,2514.91,600.08,586.92,21.75,0000 0000 0000 0000 000000
2018-04-07 04:23:23,0.17,3.69,0.00,31.02,32.70,35.45,13.62,47.87,1027.82,2001.91,2223.61,2182.56,2512.99,599.58,586.30,21.80,0000 0000 0000 0000 000000
2018-04-07 04:28:25,0.07,3.69,0.00,31.08,32.77,35.50,13.61,47.74,1027.77,2001.23,2221.53,2180.96,2511.23,599.91,586.58,21.85,0000 0000 0000 0000 000000
2018-04-07 04:33:26,0.17,3.70,0.00,31.15,32.83,35.56,13.56,47.65,1027.81,2001.01,2219.46,2179.44,2509.42,599.79,586.24,21.90,0000 0000 0000 0000 000000
2018-04-07 04:38:27,0.17,3.71,0.00,31.20,32.89,35.63,13.63,47.68,1027.83,2000.99,2217.34,2177.84,2507.60,600.19,586.52,21.95,0000 0000 0000 0000 000000
2018-04-07 04:43:28,0.11,3.72,0.00,31.25,32.96,35.69,13.64,47.66,1027.84,2000.54,2215.34,2176.26,2505.71,600.07,586.34,22.00,0000 0000 0000 0000 000000
2018-04-07 04:48:29,0.14,3.72,0.00,31.30,33.01,35.75,13.51,47.64,1027.83,2000.04,2213.08,2174.69,2503.83,599.66,585.89,22.06,0000 0000 0000 0000 000000
2018-04-07 04:53:31,0.16,3.73,0.00,31.36,33.08,35.80,13.57,47.59,1027.82,2000.00,2211.05,2173.18,2502.06,600.04,586.10,22.11,0000 0000 0000 0000 000000
2018-04-07 04:58:32,0.16,3.74,0.00,31.39,33.14,35.89,13.63,47.68,1027.79,1999.90,2208.96,2171.63,2500.21,600.13,586.22,22.16,0000 0000 0000 0000 000000
2018-04-07 05:03:33,0.08,3.74,0.00,31.45,33.20,35.92,13.59,47.61,1027.79,1999.33,2206.90,2170.07,2498.45,600.17,585.95,22.21,0000 0000 0000 0000 000000
2018-04-07 05:08:35,0.16,3.75,0.00,31.50,33.27,35.98,13.61,47.58,1027.68,1999.02,2204.85,2168.53,2496.65,600.18,585.85,22.26,0000 0000 0000 0000 000000
2018-04-07 05:13:36,0.15,3.76,0.00,31.56,33.33,36.03,13.57,47.73,1027.60,1998.99,2202.79,2167.02,2495.04,599.80,585.37,22.31,0000 0000 0000 0000 000000
2018-04-07 05:18:37,0.11,3.77,0.00,31.62,33.39,36.10,13.61,47.68,1027.54,1998.60,2200.78,2165.46,2493.31,599.88,585.41,22.36,0000 0000 0000 0000 000000
2018-04-07 05:23:38,0.14,3.77,0.00,31.70,33.45,36.16,13.60,47.67,1027.51,1998.10,2198.73,2163.90,2491.47,600.07,585.30,22.41,0000 0000 0000 0000 000000
2018-04-07 05:28:40,0.16,3.78,0.00,31.71,33.51,36.21,13.62,47.78,1027.53,1998.00,2196.61,2162.33,2489.62,600.12,585.34,22.46,0000 0000 0000 0000 000000
2018-04-07 05:33:41,0.15,3.79,0.00,31.76,33.58,36.26,13.52,47.69,1027.63,1997.90,2194.68,2160.76,2487.86,599.45,584.67,22.51,0000 0000 0000 0000 000000
2018-04-07 05:38:42,0.08,3.79,0.00,31.82,33.63,36.32,13.61,47.73,1027.79,1997.14,2192.63,2159.25,2486.03,599.70,584.86,22.56,0000 0000 0000 0000 000000
2018-04-07 05:43:43,0.17,3.80,0.00,31.87,33.69,36.38,13.54,47.73,1027.72,1997.01,2190.66,2157.71,2484.31,600.06,585.15,22.61,0000 0000 0000 0000 000000
2018-04-07 05:48:45,0.15,3.81,0.00,31.93,33.75,36.43,13.60,47.69,1027.61,1996.98,2188.77,2156.28,2482.62,599.88,584.73,22.66,0000 0000 0000 0000 000000
2018-04-07 05:53:46,0.14,3.82,0.00,31.98,33.81,36.49,13.58,47.63,1027.51,1996.80,2186.87,2154.80,2480.95,599.92,584.53,22.71,0000 0000 0000 0000 000000
2018-04-07 05:58:47,0.08,3.82,0.00,32.02,33.87,36.56,13.58,47.63,1027.40,1996.12,2184.89,2153.41,2479.26,600.16,584.69,22.76,0000 0000 0000 0000 000000
2018-04-07 06:03:49,0.16,3.83,0.00,32.07,33.93,36.60,13.52,47.55,1027.40,1996.00,2182.93,2151.90,2477.57,599.98,584.37,22.81,0000 0000 0000 0000 000000
2018-04-07 06:08:50,0.16,3.84,0.00,32.11,33.98,36.66,13.58,47.68,1027.42,1995.96,2180.91,2150.38,2475.78,600.02,584.40,22.86,0000 0000 0000 0000 000000
2018-04-07 06:13:51,0.10,3.84,0.00,32.17,34.04,36.71,13.59,47.67,1027.39,1995.58,2178.95,2148.84,2474.00,599.89,584.17,22.91,0000 0000 0000 0000 000000
2018-04-07 06:18:52,0.12,3.85,0.00,32.18,34.09,36.74,13.56,47.55,1027.38,1995.08,2177.07,2147.45,2472.34,600.47,584.55,22.96,0000 0000 0000 0000 000000
2018-04-07 06:23:53,0.18,3.86,0.00,32.23,34.14,36.82,13.60,47.70,1027.39,1995.00,2175.01,2145.83,2470.52,599.89,583.96,23.01,0000 0000 0000 0000 000000
2018-04-07 06:28:55,0.17,3.87,0.00,32.29,34.20,36.85,13.63,47.57,1027.38,1994.96,2172.96,2144.29,2468.68,600.49,584.45,23.06,0000 0000 0000 0000 000000
2018-04-07 06:33:56,0.12,3.87,0.00,32.35,34.25,36.91,13.59,47.58,1027.39,1994.40,2170.63,2142.61,2466.76,600.02,583.93,23.11,0000 0000 0000 0000 000000
2018-04-07 06:38:57,0.18,3.88,0.00,32.39,34.30,36.95,13.51,47.57,1027.45,1994.03,2168.22,2140.82,2464.78,599.63,583.52,23.16,0000 0000 0000 0000 000000
2018-04-07 06:43:58,0.21,3.89,0.00,32.41,34.34,37.01,13.57,47.52,1027.55,1994.00,2165.64,2139.01,2462.64,599.90,583.85,23.21,0000 0000 0000 0000 000000
2018-04-07 06:48:59,0.21,3.90,0.00,32.48,34.39,37.07,13.55,47.65,1027.57,1993.97,2162.99,2137.08,2460.38,599.80,583.44,23.26,0000 0000 0000 0000 000000
2018-04-07 06:54:01,0.12,3.91,0.00,32.54,34.44,37.11,13.55,47.51,1027.55,1993.64,2160.88,2135.55,2458.52,599.82,583.41,23.31,0000 0000 0000 0000 000000
2018-04-07 06:59:02,0.13,3.92,0.00,32.56,34.48,37.16,13.53,47.54,1027.68,1993.13,2158.78,2133.95,2456.74,599.95,583.78,23.36,0000 0000 0000 0000 000000
2018-04-07 07:04:03,0.17,3.93,0.00,32.61,34.52,37.20,13.59,47.54,1027.69,1993.00,2156.62,2132.43,2454.94,600.24,583.84,23.41,0000 0000 0000 0000 000000
2018-04-07 07:09:04,0.22,3.94,0.00,32.67,34.57,37.26,13.58,47.48,1027.60,1993.00,2154.18,2130.61,2452.87,600.12,583.56,23.46,0000 0000 0000 0000 000000
2018-04-07 07:14:05,0.18,3.95,0.00,32.71,34.61,37.30,13.53,47.50,1027.51,1992.83,2151.58,2128.77,2450.74,599.86,583.11,23.51,0000 0000 0000 0000 000000
2018-04-07 07:19:07,0.16,3.96,0.00,32.75,34.65,37.35,13.56,47.48,1027.49,1992.39,2148.91,2126.87,2448.57,600.28,583.51,23.56,0000 0000 0000 0000 000000
2018-04-07 07:24:08,0.18,3.96,0.00,32.81,34.70,37.40,13.54,47.49,1027.54,1992.05,2146.33,2125.08,2446.46,600.16,583.28,23.61,0000 0000 0000 0000 000000
2018-04-07 07:29:09,0.20,3.98,0.00,32.86,34.74,37.44,13.56,47.52,1027.69,1992.00,2143.92,2123.28,2444.39,599.86,582.99,23.66,0000 0000 0000 0000 000000
2018-04-07 07:34:11,0.19,3.99,0.00,32.87,34.79,37.49,13.48,47.52,1027.50,1991.98,2141.51,2121.50,2442.40,599.54,582.54,23.71,0000 0000 0000 0000 000000
2018-04-07 07:39:12,0.17,3.99,0.00,32.91,34.84,37.54,13.49,47.53,1027.67,1991.77,2139.25,2119.85,2440.45,599.97,582.92,23.76,0000 0000 0000 0000 000000
2018-04-07 07:44:13,0.13,4.00,0.00,32.97,34.88,37.56,13.47,47.48,1027.79,1991.18,2136.99,2118.17,2438.49,599.98,582.84,23.81,0000 0000 0000 0000 000000
2018-04-07 07:49:14,0.18,4.01,0.00,32.98,34.93,37.61,13.53,47.50,1027.66,1991.00,2134.80,2116.52,2436.51,600.21,583.13,23.86,0000 0000 0000 0000 000000
2018-04-07 07:54:16,0.18,4.02,0.00,33.03,34.98,37.66,13.62,47.50,1027.70,1990.98,2132.76,2114.86,2434.67,600.35,583.14,23.91,0000 0000 0000 0000 000000
2018-04-07 07:59:17,0.19,4.03,0.00,33.08,35.02,37.70,13.49,47.46,1027.78,1990.81,2130.32,2113.14,2432.66,599.88,582.63,23.96,0000 0000 0000 0000 000000
2018-04-07 08:04:18,0.17,4.04,0.00,33.11,35.06,37.74,13.54,47.43,1027.81,1990.22,2127.49,2111.18,2430.45,599.92,582.73,24.01,0000 0000 0000 0000 000000
2018-04-07 08:09:20,0.23,4.05,0.00,33.17,35.11,37.78,13.60,47.56,1027.82,1990.01,2124.68,2109.28,2428.08,600.19,582.73,24.06,0000 0000 0000 0000 000000
2018-04-07 08:14:21,0.29,4.06,0.00,33.23,35.16,37.81,13.58,47.48,1027.76,1989.99,2121.25,2106.96,2425.33,600.01,582.46,24.11,0000 0000 0000 0000 000000
2018-04-07 08:19:22,0.25,4.07,0.00,33.24,35.20,37.87,13.51,47.48,1027.80,1989.74,2117.83,2104.56,2422.61,599.92,582.31,24.16,0000 0000 0000 0000 000000
2018-04-07 08:24:23,0.24,4.09,0.00,33.27,35.24,37.93,13.46,47.46,1027.84,1989.22,2114.18,2102.10,2419.79,600.17,582.38,24.21,0000 0000 0000 0000 000000
2018-04-07 08:29:24,0.25,4.10,0.00,33.32,35.29,37.98,13.54,47.33,1027.81,1989.03,2110.98,2099.87,2417.20,599.95,582.30,24.26,0000 0000 0000 0000 000000
2018-04-07 08:34:26,0.32,4.11,0.00,33.34,35.33,38.02,13.55,47.39,1027.80,1989.00,2107.35,2097.34,2414.30,599.95,582.22,24.31,0000 0000 0000 0000 000000
2018-04-07 08:39:27,0.29,4.13,0.00,33.35,35.37,38.08,13.63,47.48,1027.77,1988.97,2103.68,2094.88,2411.51,600.22,582.38,24.36,0000 0000 0000 0000 000000
2018-04-07 08:44:28,0.21,4.14,0.00,33.38,35.41,38.15,13.53,47.43,1027.77,1988.72,2100.64,2092.74,2409.09,600.22,582.31,24.41,0000 0000 0000 0000 000000
2018-04-07 08:49:29,0.18,4.15,0.00,33.41,35.45,38.20,13.45,47.38,1027.79,1988.13,2097.69,2090.62,2406.65,599.61,581.84,24.46,0000 0000 0000 0000 000000
2018-04-07 08:54:31,0.24,4.16,0.00,33.39,35.49,38.23,13.57,47.33,1027.79,1988.01,2094.92,2088.59,2404.31,600.16,582.32,24.51,0000 0000 0000 0000 000000
2018-04-07 08:59:32,0.24,4.18,0.00,33.41,35.53,38.28,13.48,47.39,1027.75,1988.00,2092.25,2086.58,2402.09,599.89,582.03,24.56,0000 0000 0000 0000 000000
2018-04-07 09:04:33,0.21,4.19,0.00,33.43,35.56,38.31,13.48,47.39,1027.74,1987.97,2089.79,2084.77,2399.92,600.08,582.06,24.61,0000 0000 0000 0000 000000
2018-04-07 09:09:35,0.15,4.20,0.00,33.42,35.60,38.36,13.54,47.47,1027.68,1987.66,2087.56,2083.05,2397.82,599.97,582.10,24.66,0000 0000 0000 0000 000000
2018-04-07 09:14:36,0.14,4.20,0.00,33.43,35.64,38.39,13.48,47.42,1027.77,1987.14,2085.41,2081.36,2395.91,599.90,581.98,24.71,0000 0000 0000 0000 000000
2018-04-07 09:19:38,0.21,4.21,0.00,33.45,35.67,38.39,13.52,47.40,1027.83,1987.00,2083.17,2079.63,2393.95,599.96,582.09,24.76,0000 0000 0000 0000 000000
2018-04-07 09:24:39,0.23,4.22,0.00,33.47,35.70,38.42,13.54,47.34,1027.84,1987.00,2080.60,2077.76,2391.87,599.86,581.90,24.81,0000 0000 0000 0000 000000
2018-04-07 09:29:40,0.19,4.23,0.00,33.48,35.73,38.45,13.56,47.31,1027.84,1986.98,2078.27,2076.07,2389.86,599.88,581.91,24.86,0000 0000 0000 0000 000000
2018-04-07 09:34:42,0.18,4.24,0.00,33.49,35.76,38.46,13.54,47.32,1027.76,1986.92,2076.09,2074.52,2388.00,600.31,582.19,24.91,0000 0000 0000 0000 000000
2018-04-07 09:39:43,0.14,4.25,0.00,33.48,35.79,38.50,13.55,47.34,1027.59,1986.60,2073.94,2072.92,2386.21,600.03,581.83,24.96,0000 0000 0000 0000 000000
2018-04-07 09:44:44,0.15,4.26,0.00,33.42,35.81,38.53,13.53,47.37,1027.50,1986.12,2071.66,2071.34,2384.35,600.22,582.11,25.02,0000 0000 0000 0000 000000
2018-04-07 09:49:45,0.19,4.27,0.00,33.43,35.84,38.54,13.54,47.42,1027.39,1986.02,2069.33,2069.69,2382.49,599.93,581.90,25.07,0000 0000 0000 0000 000000
2018-04-07 09:54:47,0.18,4.28,0.00,33.45,35.86,38.56,13.44,47.27,1027.39,1986.00,2067.23,2068.10,2380.68,599.71,581.51,25.12,0000 0000 0000 0000 000000
2018-04-07 09:59:48,0.17,4.29,0.00,33.43,35.87,38.60,13.51,47.19,1027.43,1985.97,2065.41,2066.62,2378.88,600.00,581.88,25.17,0000 0000 0000 0000 000000
2018-04-07 10:04:49,0.18,4.30,0.00,33.44,35.90,38.60,13.58,47.27,1027.59,1985.95,2063.30,2065.10,2377.15,600.08,582.03,25.22,0000 0000 0000 0000 000000
2018-04-07 10:09:51,0.16,4.31,0.00,33.46,35.91,38.62,13.47,47.27,1027.58,1985.72,2061.02,2063.59,2375.41,599.71,581.64,25.27,0000 0000 0000 0000 000000
2018-04-07 10:14:52,0.22,4.32,0.00,33.44,35.93,38.64,13.66,47.31,1027.58,1985.69,2058.69,2061.91,2373.49,600.23,582.17,25.32,0000 0000 0000 0000 000000
2018-04-07 10:19:53,0.19,4.33,0.00,33.43,35.95,38.67,13.56,47.19,1027.59,1985.43,2056.11,2060.02,2371.34,600.09,582.24,25.37,0000 0000 0000 0000 000000
2018-04-07 10:24:55,0.17,4.34,0.00,33.43,35.96,38.67,13.51,47.23,1027.51,1985.16,2053.83,2058.39,2369.43,599.89,581.78,25.42,0000 0000 0000 0000 000000
2018-04-07 10:29:56,0.20,4.34,0.00,33.41,35.98,38.70,13.50,47.27,1027.44,1985.04,2051.59,2056.74,2367.61,599.93,581.83,25.47,0000 0000 0000 0000 000000
2018-04-07 10:34:58,0.17,4.36,0.00,33.37,35.99,38.70,13.52,47.18,1027.45,1985.02,2049.44,2055.19,2365.89,600.18,582.13,25.52,0000 0000 0000 0000 000000
2018-04-07 10:40:00,0.18,4.37,0.00,33.36,36.00,38.71,13.51,47.19,1027.49,1985.00,2047.46,2053.73,2364.25,600.12,582.21,25.57,0000 0000 0000 0000 000000
2018-04-07 10:45:01,0.16,4.37,0.00,33.34,36.01,38.75,13.51,47.16,1027.44,1985.00,2045.78,2052.35,2362.66,600.18,582.17,25.62,0000 0000 0000 0000 000000
2018-04-07 10:50:02,0.18,4.38,0.00,33.29,36.02,38.74,13.49,47.09,1027.39,1985.00,2043.74,2050.86,2360.94,599.90,581.93,25.67,0000 0000 0000 0000 000000
2018-04-07 10:55:03,0.18,4.39,0.00,33.26,36.03,38.75,13.54,47.04,1027.37,1985.00,2041.57,2049.44,2359.32,599.66,581.80,25.72,0000 0000 0000 0000 000000
2018-04-07 11:00:05,0.19,4.40,0.00,33.24,36.03,38.77,13.52,47.04,1027.37,1984.97,2039.51,2047.85,2357.58,599.91,582.13,25.77,0000 0000 0000 0000 000000
2018-04-07 11:05:07,0.17,4.41,0.00,33.19,36.03,38.77,13.59,47.02,1027.37,1984.97,2037.43,2046.71,2355.92,600.12,582.43,25.82,0000 0000 0000 0000 000000
2018-04-07 11:10:08,0.21,4.42,0.00,33.16,36.03,38.78,13.64,47.11,1027.36,1984.96,2035.13,2045.20,2354.09,600.12,582.51,25.87,0000 0000 0000 0000 000000
2018-04-07 11:15:09,0.19,4.43,0.00,33.13,36.03,38.77,13.63,47.10,1027.36,1984.96,2032.94,2043.67,2352.34,599.84,582.09,25.92,0000 0000 0000 0000 000000
2018-04-07 11:20:10,0.19,4.44,0.00,33.07,36.02,38.82,13.55,47.07,1027.36,1984.90,2030.80,2042.09,2350.55,599.75,582.28,25.97,0000 0000 0000 0000 000000
2018-04-07 11:25:12,0.17,4.45,0.00,33.05,36.00,38.80,13.55,47.09,1027.36,1984.91,2028.88,2040.74,2348.93,599.99,582.59,26.02,0000 0000 0000 0000 000000
2018-04-07 11:30:13,0.19,4.46,0.00,33.03,36.00,38.79,13.61,47.05,1027.36,1984.91,2026.68,2039.33,2347.28,600.03,582.60,26.07,0000 0000 0000 0000 000000
2018-04-07 11:35:15,0.24,4.47,0.00,32.98,35.98,38.82,13.54,46.98,1027.36,1984.97,2024.21,2037.59,2345.32,600.07,582.80,26.12,0000 0000 0000 0000 000000
2018-04-07 11:40:17,0.23,4.48,0.00,32.95,35.97,38.85,13.59,47.05,1027.36,1984.95,2021.67,2035.71,2343.21,599.90,582.65,26.17,0000 0000 0000 0000 000000
2018-04-07 11:45:18,0.24,4.49,0.00,32.92,35.95,38.83,13.61,47.08,1027.36,1984.94,2019.12,2033.87,2341.00,600.19,583.08,26.22,0000 0000 0000 0000 000000
2018-04-07 11:50:19,0.23,4.51,0.00,32.87,35.94,38.87,13.62,47.08,1027.36,1984.96,2016.49,2032.04,2338.79,600.11,583.16,26.27,0000 0000 0000 0000 000000
2018-04-07 11:55:20,0.28,4.52,0.00,32.83,35.92,38.88,13.59,47.03,1027.35,1984.98,2013.43,2029.95,2336.46,599.88,582.86,26.32,0000 0000 0000 0000 000000
2018-04-07 12:00:22,0.23,4.53,0.00,32.82,35.90,38.86,13.61,47.14,1027.23,1984.98,2010.78,2028.09,2334.23,600.10,582.94,26.37,0000 0000 0000 0000 000000
2018-04-07 12:05:23,0.25,4.54,0.00,32.76,35.88,38.81,13.63,47.08,1027.08,1984.99,2008.20,2026.22,2332.11,600.23,583.16,26.42,0000 0000 0000 0000 000000
2018-04-07 12:10:24,0.27,4.56,0.00,32.72,35.86,38.80,13.61,47.12,1026.94,1984.99,2005.28,2024.21,2329.74,600.00,582.90,26.47,0000 0000 0000 0000 000000
2018-04-07 12:15:26,0.26,4.57,0.00,32.68,35.84,38.78,13.56,47.02,1026.91,1984.99,2002.40,2022.13,2327.47,600.06,583.09,26.52,0000 0000 0000 0000 000000
2018-04-07 12:20:27,0.31,4.59,0.00,32.65,35.82,38.77,13.66,47.15,1026.90,1984.99,1999.12,2019.91,2324.88,600.32,583.38,26.57,0000 0000 0000 0000 000000
2018-04-07 12:25:28,0.34,4.60,0.00,32.61,35.79,38.72,13.50,47.08,1026.90,1985.05,1995.62,2017.45,2322.10,599.73,582.87,26.62,0000 0000 0000 0000 000000
2018-04-07 12:30:29,0.38,4.62,0.00,32.54,35.77,38.69,13.50,47.17,1026.88,1985.39,1992.08,2014.90,2319.20,599.74,582.95,26.67,0000 0000 0000 0000 000000
2018-04-07 12:35:30,0.36,4.64,0.00,32.51,35.75,38.66,13.52,47.26,1026.87,1985.61,1988.55,2012.20,2316.19,599.99,583.25,26.72,0000 0000 0000 0000 000000
2018-04-07 12:40:32,0.34,4.66,0.00,32.49,35.72,38.63,13.65,47.21,1026.87,1985.81,1985.28,2009.58,2313.22,600.15,583.51,26.77,0000 0000 0000 0000 000000
2018-04-07 12:45:33,0.33,4.67,0.00,32.44,35.70,38.62,13.61,47.23,1026.87,1985.92,1982.12,2007.17,2310.40,600.06,583.61,26.82,0000 0000 0000 0000 000000
2018-04-07 12:50:35,0.33,4.69,0.00,32.39,35.68,38.58,13.69,47.33,1026.87,1985.98,1978.63,2004.65,2307.57,600.29,583.75,26.87,0000 0000 0000 0000 000000
2018-04-07 12:55:36,0.33,4.71,0.00,32.35,35.65,38.55,13.63,47.38,1026.87,1985.99,1975.26,2002.13,2304.69,599.99,583.62,26.92,0000 0000 0000 0000 000000